Weather History for KDVT - March, 2013

Change the Weather History Date:

Friday, March 8, 2013

  Actual Average Record
Temperature  
Mean Temperature 53 °F -  
Max Temperature 62 °F 70 °F 88 °F (2004)
Min Temperature 44 °F 48 °F 37 °F (1998)
Degree Days  
Heating Degree Days 12    
Growing Degree Days 3 (Base 50)    
Moisture  
Dew Point 44 °F    
Average Humidity 78    
Maximum Humidity 94    
Minimum Humidity 32    
Precipitation  
Precipitation 0.65 in - - ()
Sea Level Pressure  
Sea Level Pressure 29.83 in    
Wind  
Wind Speed 10 mph (ESE)    
Max Wind Speed 25 mph    
Max Gust Speed 37 mph    
Visibility 8 miles    
Events Rain    
Averages and records for this station are not official NWS values.
T = Trace of Precipitation, MM = Missing Value Source: NWS Daily Summary

Daily Weather History Graph

Daily Weather History Graph

Search for Another Location

Airport or City:

Trip Planner

Search our weather history database for the weather conditions in past years. The results will help you decide how hot, cold, wet, or windy it might be!

Date:

Astronomy

Mar. 08, 2013 Rise Set
Actual Time 6:47 AM MST 6:30 PM MST
Civil Twilight 6:22 AM MST 6:55 PM MST
Nautical Twilight 5:53 AM MST 7:24 PM MST
Astronomical Twilight 5:24 AM MST 7:53 PM MST
Moon 4:26 AM MST (3/8) 3:36 PM MST (3/8)
Length of Visible Light 12h 33m
Length of Day
11h 43m
Waning Crescent, 11% of the Moon is Illuminated
Mar 8
Waning Crescent
Mar 11
New
Mar 19
First Quarter
Mar 27
Full
Apr 2
Last Quarter

Hourly Weather History & Observations

Time (MST) Temp. Windchill Dew Point Humidity Pressure Visibility Wind Dir Wind Speed Gust Speed Precip Events Conditions
12:53 AM 60.1 °F - 33.1 °F 36% 29.81 in 10.0 mi SE 4.6 mph - N/A   Partly Cloudy
1:53 AM 62.1 °F - 32.0 °F 32% 29.79 in 10.0 mi East 6.9 mph - N/A   Scattered Clouds
2:53 AM 61.0 °F - 34.0 °F 36% 29.78 in 10.0 mi East 4.6 mph - N/A   Overcast
3:53 AM 59.0 °F - 42.1 °F 53% 29.78 in 10.0 mi SE 8.1 mph - 0.01 in   Overcast
4:53 AM 54.0 °F - 48.9 °F 83% 29.77 in 10.0 mi SE 9.2 mph 16.1 mph 0.02 in Rain Light Rain
5:53 AM 55.0 °F - 48.9 °F 80% 29.76 in 10.0 mi SE 10.4 mph - 0.06 in Rain Light Rain
6:53 AM 54.0 °F - 50.0 °F 86% 29.77 in 6.0 mi ESE 17.3 mph - 0.05 in Rain Light Rain
8:03 AM 53.6 °F - 51.8 °F 94% 29.82 in 10.0 mi SE 16.1 mph - 0.04 in   Overcast
8:35 AM 53.6 °F - 50.0 °F 88% 29.82 in 10.0 mi SE 16.1 mph 21.9 mph 0.04 in Rain Light Rain
8:53 AM 53.1 °F - 50.0 °F 89% 29.78 in 10.0 mi SE 18.4 mph 26.5 mph 0.04 in   Overcast
9:53 AM 54.0 °F - 50.0 °F 86% 29.80 in 10.0 mi SE 11.5 mph 20.7 mph 0.00 in   Overcast
10:36 AM 55.4 °F - 50.0 °F 82% 29.83 in 10.0 mi SE 13.8 mph 21.9 mph 0.01 in Rain Light Rain
10:53 AM 57.0 °F - 50.0 °F 77% 29.77 in 10.0 mi SE 15.0 mph - 0.01 in   Overcast
11:15 AM 57.2 °F - 50.0 °F 77% 29.82 in 9.0 mi South 16.1 mph 24.2 mph 0.06 in Rain Light Rain
11:53 AM 59.0 °F - 50.0 °F 72% 29.76 in 10.0 mi SSW 9.2 mph - 0.07 in   Overcast
12:53 PM 62.1 °F - 46.9 °F 58% 29.71 in 10.0 mi South 12.7 mph 24.2 mph N/A   Mostly Cloudy
1:53 PM 55.9 °F - 46.9 °F 72% 29.69 in 7.0 mi South 10.4 mph 26.5 mph 0.01 in Rain Light Rain
2:36 PM 50.0 °F - 44.6 °F 82% 29.78 in 10.0 mi West 25.3 mph 36.8 mph 0.00 in Rain Light Rain
2:53 PM 48.0 °F - 46.0 °F 93% 29.79 in 3.0 mi West 21.9 mph 28.8 mph 0.03 in Rain Rain
3:06 PM 46.4 °F 38.3 °F 42.8 °F 87% 29.85 in 3.0 mi West 23.0 mph 29.9 mph 0.04 in Rain Rain
3:13 PM 46.4 °F 39.0 °F 42.8 °F 87% 29.85 in 3.0 mi West 19.6 mph 28.8 mph 0.06 in Rain Rain
3:33 PM 46.4 °F 38.5 °F 42.8 °F 87% 29.86 in 3.0 mi West 21.9 mph 33.4 mph 0.12 in Rain Rain
3:53 PM 44.1 °F 36.5 °F 39.9 °F 85% 29.86 in 3.0 mi West 17.3 mph 31.1 mph 0.16 in Rain Light Rain
4:25 PM 44.6 °F 40.2 °F 39.2 °F 81% 29.86 in 10.0 mi North 8.1 mph - 0.01 in   Mostly Cloudy
4:53 PM 45.0 °F 40.6 °F 39.9 °F 82% 29.83 in 10.0 mi NNE 8.1 mph - 0.01 in   Scattered Clouds
5:53 PM 46.9 °F - 39.0 °F 74% 29.85 in 10.0 mi NE 6.9 mph - N/A   Partly Cloudy
6:53 PM 46.0 °F 43.1 °F 37.9 °F 73% 29.85 in 10.0 mi ENE 5.8 mph - N/A   Clear
7:53 PM 46.0 °F 43.9 °F 39.9 °F 79% 29.87 in 10.0 mi East 4.6 mph - N/A   Mostly Cloudy
8:53 PM 45.0 °F 42.6 °F 41.0 °F 86% 29.92 in 5.0 mi ESE 4.6 mph - 0.08 in Rain Light Rain
9:17 PM 44.6 °F 40.2 °F 42.8 °F 93% 29.93 in 2.5 mi NE 8.1 mph - 0.09 in Rain Rain
9:22 PM 44.6 °F 40.7 °F 41.0 °F 87% 29.93 in 3.0 mi NNE 6.9 mph - 0.10 in Rain Rain
9:36 PM 44.6 °F 42.2 °F 41.0 °F 87% 29.95 in 10.0 mi ENE 4.6 mph - 0.10 in   Overcast
9:53 PM 44.1 °F 40.8 °F 41.0 °F 89% 29.93 in 10.0 mi East 5.8 mph - 0.10 in Rain Light Rain
10:03 PM 44.6 °F 41.4 °F 41.0 °F 87% 29.94 in 10.0 mi NE 5.8 mph - 0.00 in Rain Light Rain
10:53 PM 44.1 °F 41.5 °F 39.0 °F 82% 29.93 in 10.0 mi East 4.6 mph - 0.00 in   Scattered Clouds
11:53 PM 45.0 °F - 41.0 °F 86% 29.94 in 10.0 mi Calm Calm - 0.00 in Rain Light Rain